Year,Month,Day,Hour,Minute,Value (Times are PST for temperature in C)
2014,05,17,00,00,15.10
2014,05,17,00,01,15.10
2014,05,17,00,02,15.10
2014,05,17,00,03,15.10
2014,05,17,00,04,15.10
2014,05,17,00,05,15.10
2014,05,17,00,06,15.10
2014,05,17,00,07,15.10
2014,05,17,00,08,15.10
2014,05,17,00,09,15.10
2014,05,17,00,10,15.10
2014,05,17,00,11,15.10
2014,05,17,00,12,15.10
2014,05,17,00,13,15.10
2014,05,17,00,14,15.10
2014,05,17,00,15,15.10
2014,05,17,00,16,15.10
2014,05,17,00,17,15.10
2014,05,17,00,18,15.10
2014,05,17,00,19,15.10
2014,05,17,00,20,15.10
2014,05,17,00,21,15.00
2014,05,17,00,22,15.00
2014,05,17,00,23,15.00
2014,05,17,00,24,15.00
2014,05,17,00,25,15.00
2014,05,17,00,26,15.00
2014,05,17,00,27,15.00
2014,05,17,00,28,15.00
2014,05,17,00,29,15.00
2014,05,17,00,30,15.00
2014,05,17,00,31,15.00
2014,05,17,00,32,15.00
2014,05,17,00,33,15.00
2014,05,17,00,34,15.00
2014,05,17,00,35,15.00
2014,05,17,00,36,15.00
2014,05,17,00,37,15.00
2014,05,17,00,38,15.00
2014,05,17,00,39,15.00
2014,05,17,00,40,15.00
2014,05,17,00,41,15.00
2014,05,17,00,42,15.00
2014,05,17,00,43,15.00
2014,05,17,00,44,15.00
2014,05,17,00,45,15.00
2014,05,17,00,46,15.00
2014,05,17,00,47,15.00
2014,05,17,00,48,15.00
2014,05,17,00,49,15.00
2014,05,17,00,50,15.00
2014,05,17,00,51,15.00
2014,05,17,00,52,15.00
2014,05,17,00,53,15.00
2014,05,17,00,54,15.00
2014,05,17,00,55,15.00
2014,05,17,00,56,15.00
2014,05,17,00,57,15.00
2014,05,17,00,58,15.00
2014,05,17,00,59,15.00
2014,05,17,01,00,15.00
2014,05,17,01,01,15.00
2014,05,17,01,02,15.00
2014,05,17,01,03,15.00
2014,05,17,01,04,15.00
2014,05,17,01,05,15.00
2014,05,17,01,06,15.00
2014,05,17,01,07,15.00
2014,05,17,01,08,15.00
2014,05,17,01,09,15.00
2014,05,17,01,10,15.00
2014,05,17,01,11,15.00
2014,05,17,01,12,15.00
2014,05,17,01,13,15.00
2014,05,17,01,14,15.00
2014,05,17,01,15,15.00
2014,05,17,01,16,15.00
2014,05,17,01,17,15.00
2014,05,17,01,18,15.00
2014,05,17,01,19,15.00
2014,05,17,01,20,15.00
2014,05,17,01,21,14.90
2014,05,17,01,22,14.90
2014,05,17,01,23,14.90
2014,05,17,01,24,14.90
2014,05,17,01,25,14.90
2014,05,17,01,26,14.90
2014,05,17,01,27,14.90
2014,05,17,01,28,14.90
2014,05,17,01,29,14.90
2014,05,17,01,30,14.90
2014,05,17,01,31,14.90
2014,05,17,01,32,14.90
2014,05,17,01,33,14.90
2014,05,17,01,34,14.90
2014,05,17,01,35,14.90
2014,05,17,01,36,14.90
2014,05,17,01,37,14.90
2014,05,17,01,38,14.90
2014,05,17,01,39,14.90
2014,05,17,01,40,14.80
2014,05,17,01,41,14.80
2014,05,17,01,42,14.80
2014,05,17,01,43,14.80
2014,05,17,01,44,14.80
2014,05,17,01,45,14.80
2014,05,17,01,46,14.80
2014,05,17,01,47,14.80
2014,05,17,01,48,14.80
2014,05,17,01,49,14.80
2014,05,17,01,50,14.80
2014,05,17,01,51,14.80
2014,05,17,01,52,14.80
2014,05,17,01,53,14.80
2014,05,17,01,54,14.70
2014,05,17,01,55,14.70
2014,05,17,01,56,14.70
2014,05,17,01,57,14.70
2014,05,17,01,58,14.70
2014,05,17,01,59,14.70
2014,05,17,02,00,14.70
2014,05,17,02,01,14.70
2014,05,17,02,02,14.70
2014,05,17,02,03,14.60
2014,05,17,02,04,14.60
2014,05,17,02,05,14.60
2014,05,17,02,06,14.60
2014,05,17,02,07,14.60
2014,05,17,02,08,14.60
2014,05,17,02,09,14.60
2014,05,17,02,10,14.60
2014,05,17,02,11,14.60
2014,05,17,02,12,14.60
2014,05,17,02,13,14.60
2014,05,17,02,14,14.60
2014,05,17,02,15,14.60
2014,05,17,02,16,14.60
2014,05,17,02,17,14.60
2014,05,17,02,18,14.60
2014,05,17,02,19,14.60
2014,05,17,02,20,14.60
2014,05,17,02,21,14.60
2014,05,17,02,22,14.60
2014,05,17,02,23,14.60
2014,05,17,02,24,14.60
2014,05,17,02,25,14.60
2014,05,17,02,26,14.60
2014,05,17,02,27,14.60
2014,05,17,02,28,14.60
2014,05,17,02,29,14.60
2014,05,17,02,30,14.60
2014,05,17,02,31,14.60
2014,05,17,02,32,14.60
2014,05,17,02,33,14.60
2014,05,17,02,34,14.60
2014,05,17,02,35,14.60
2014,05,17,02,36,14.60
2014,05,17,02,37,14.60
2014,05,17,02,38,14.60
2014,05,17,02,39,14.60
2014,05,17,02,40,14.60
2014,05,17,02,41,14.60
2014,05,17,02,42,14.60
2014,05,17,02,43,14.60
2014,05,17,02,44,14.60
2014,05,17,02,45,14.60
2014,05,17,02,46,14.60
2014,05,17,02,47,14.60
2014,05,17,02,48,14.60
2014,05,17,02,49,14.60
2014,05,17,02,50,14.60
2014,05,17,02,51,14.60
2014,05,17,02,52,14.50
2014,05,17,02,53,14.50
2014,05,17,02,54,14.50
2014,05,17,02,55,14.50
2014,05,17,02,56,14.50
2014,05,17,02,57,14.50
2014,05,17,02,58,14.50
2014,05,17,02,59,14.50
2014,05,17,03,00,14.50
2014,05,17,03,01,14.50
2014,05,17,03,02,14.50
2014,05,17,03,03,14.40
2014,05,17,03,04,14.40
2014,05,17,03,05,14.40
2014,05,17,03,06,14.40
2014,05,17,03,07,14.40
2014,05,17,03,08,14.40
2014,05,17,03,09,14.40
2014,05,17,03,10,14.30
2014,05,17,03,11,14.30
2014,05,17,03,12,14.30
2014,05,17,03,13,14.30
2014,05,17,03,14,14.30
2014,05,17,03,15,14.30
2014,05,17,03,16,14.30
2014,05,17,03,17,14.30
2014,05,17,03,18,14.30
2014,05,17,03,19,14.30
2014,05,17,03,20,14.30
2014,05,17,03,21,14.30
2014,05,17,03,22,14.30
2014,05,17,03,23,14.30
2014,05,17,03,24,14.30
2014,05,17,03,25,14.30
2014,05,17,03,26,14.40
2014,05,17,03,27,14.40
2014,05,17,03,28,14.40
2014,05,17,03,29,14.40
2014,05,17,03,30,14.40
2014,05,17,03,31,14.40
2014,05,17,03,32,14.40
2014,05,17,03,33,14.40
2014,05,17,03,34,14.40
2014,05,17,03,35,14.40
2014,05,17,03,36,14.40
2014,05,17,03,37,14.40
2014,05,17,03,38,14.30
2014,05,17,03,39,14.30
2014,05,17,03,40,14.30
2014,05,17,03,41,14.30
2014,05,17,03,42,14.30
2014,05,17,03,43,14.30
2014,05,17,03,44,14.30
2014,05,17,03,45,14.30
2014,05,17,03,46,14.30
2014,05,17,03,47,14.30
2014,05,17,03,48,14.20
2014,05,17,03,49,14.20
2014,05,17,03,50,14.20
2014,05,17,03,51,14.20
2014,05,17,03,52,14.20
2014,05,17,03,53,14.20
2014,05,17,03,54,14.20
2014,05,17,03,55,14.20
2014,05,17,03,56,14.20
2014,05,17,03,57,14.20
2014,05,17,03,58,14.20
2014,05,17,03,59,14.20
2014,05,17,04,00,14.20
2014,05,17,04,01,14.20
2014,05,17,04,02,14.20
2014,05,17,04,03,14.20
2014,05,17,04,04,14.20
2014,05,17,04,05,14.20
2014,05,17,04,06,14.20
2014,05,17,04,07,14.20
2014,05,17,04,08,14.20
2014,05,17,04,09,14.20
2014,05,17,04,10,14.20
2014,05,17,04,11,14.20
2014,05,17,04,12,14.20
2014,05,17,04,13,14.20
2014,05,17,04,14,14.10
2014,05,17,04,15,14.10
2014,05,17,04,16,14.10
2014,05,17,04,17,14.10
2014,05,17,04,18,14.10
2014,05,17,04,19,14.10
2014,05,17,04,20,14.10
2014,05,17,04,21,14.10
2014,05,17,04,22,14.10
2014,05,17,04,23,14.10
2014,05,17,04,24,14.10
2014,05,17,04,25,14.10
2014,05,17,04,26,14.10
2014,05,17,04,27,14.10
2014,05,17,04,28,14.10
2014,05,17,04,29,14.10
2014,05,17,04,30,14.10
2014,05,17,04,31,14.10
2014,05,17,04,32,14.10
2014,05,17,04,33,14.10
2014,05,17,04,34,14.10
2014,05,17,04,35,14.10
2014,05,17,04,36,14.00
2014,05,17,04,37,14.00
2014,05,17,04,38,14.00
2014,05,17,04,39,14.00
2014,05,17,04,40,14.00
2014,05,17,04,41,14.00
2014,05,17,04,42,14.00
2014,05,17,04,43,14.00
2014,05,17,04,44,14.00
2014,05,17,04,45,14.00
2014,05,17,04,46,14.00
2014,05,17,04,47,14.00
2014,05,17,04,48,14.00
2014,05,17,04,49,14.00
2014,05,17,04,50,14.00
2014,05,17,04,51,14.00
2014,05,17,04,52,14.00
2014,05,17,04,53,14.00
2014,05,17,04,54,14.00
2014,05,17,04,55,14.00
2014,05,17,04,56,14.00
2014,05,17,04,57,14.00
2014,05,17,04,58,14.00
2014,05,17,04,59,13.90
2014,05,17,05,00,13.90
2014,05,17,05,01,13.90
2014,05,17,05,02,13.90
2014,05,17,05,03,13.90
2014,05,17,05,04,13.90
2014,05,17,05,05,13.90
2014,05,17,05,06,13.90
2014,05,17,05,07,13.90
2014,05,17,05,08,13.90
2014,05,17,05,09,14.00
2014,05,17,05,10,14.00
2014,05,17,05,11,14.00
2014,05,17,05,12,14.00
2014,05,17,05,13,14.00
2014,05,17,05,14,14.00
2014,05,17,05,15,14.00
2014,05,17,05,16,14.00
2014,05,17,05,17,14.00
2014,05,17,05,18,14.00
2014,05,17,05,19,14.00
2014,05,17,05,20,14.00
2014,05,17,05,21,14.00
2014,05,17,05,22,14.00
2014,05,17,05,23,14.10
2014,05,17,05,24,14.10
2014,05,17,05,25,14.10
2014,05,17,05,26,14.10
2014,05,17,05,27,14.10
2014,05,17,05,28,14.00
2014,05,17,05,29,14.10
2014,05,17,05,30,14.00
2014,05,17,05,31,14.10
2014,05,17,05,32,14.00
2014,05,17,05,33,14.00
2014,05,17,05,34,14.00
2014,05,17,05,35,14.00
2014,05,17,05,36,14.00
2014,05,17,05,37,14.00
2014,05,17,05,38,14.00
2014,05,17,05,39,14.00
2014,05,17,05,40,14.00
2014,05,17,05,41,14.00
2014,05,17,05,42,14.00
2014,05,17,05,43,14.00
2014,05,17,05,44,14.00
2014,05,17,05,45,14.10
2014,05,17,05,46,14.10
2014,05,17,05,47,14.10
2014,05,17,05,48,14.10
2014,05,17,05,49,14.10
2014,05,17,05,50,14.10
2014,05,17,05,51,14.10
2014,05,17,05,52,14.10
2014,05,17,05,53,14.10
2014,05,17,05,54,14.10
2014,05,17,05,55,14.10
2014,05,17,05,56,14.10
2014,05,17,05,57,14.10
2014,05,17,05,58,14.10
2014,05,17,05,59,14.10
2014,05,17,06,00,14.10
2014,05,17,06,01,14.10
2014,05,17,06,02,14.10
2014,05,17,06,03,14.10
2014,05,17,06,04,14.10
2014,05,17,06,05,14.10
2014,05,17,06,06,14.10
2014,05,17,06,07,14.10
2014,05,17,06,08,14.10
2014,05,17,06,09,14.10
2014,05,17,06,10,14.10
2014,05,17,06,11,14.10
2014,05,17,06,12,14.10
2014,05,17,06,13,14.00
2014,05,17,06,14,14.00
2014,05,17,06,15,14.00
2014,05,17,06,16,14.00
2014,05,17,06,17,14.00
2014,05,17,06,18,13.90
2014,05,17,06,19,13.90
2014,05,17,06,20,13.90
2014,05,17,06,21,13.90
2014,05,17,06,22,13.90
2014,05,17,06,23,13.90
2014,05,17,06,24,13.90
2014,05,17,06,25,13.90
2014,05,17,06,26,13.90
2014,05,17,06,27,13.90
2014,05,17,06,28,13.90
2014,05,17,06,29,13.90
2014,05,17,06,30,13.90
2014,05,17,06,31,13.90
2014,05,17,06,32,13.90
2014,05,17,06,33,13.90
2014,05,17,06,34,13.90
2014,05,17,06,35,13.90
2014,05,17,06,36,13.90
2014,05,17,06,37,13.90
2014,05,17,06,38,13.90
2014,05,17,06,39,13.90
2014,05,17,06,40,13.90
2014,05,17,06,41,13.90
2014,05,17,06,42,13.90
2014,05,17,06,43,13.90
2014,05,17,06,44,13.90
2014,05,17,06,45,13.90
2014,05,17,06,46,13.90
2014,05,17,06,47,13.90
2014,05,17,06,48,13.90
2014,05,17,06,49,14.00
2014,05,17,06,50,14.00
2014,05,17,06,51,14.00
2014,05,17,06,52,14.00
2014,05,17,06,53,14.00
2014,05,17,06,54,14.00
2014,05,17,06,55,14.10
2014,05,17,06,56,14.10
2014,05,17,06,57,14.10
2014,05,17,06,58,14.10
2014,05,17,06,59,14.10
2014,05,17,07,00,14.10
2014,05,17,07,01,14.10
2014,05,17,07,02,14.10
2014,05,17,07,03,14.10
2014,05,17,07,04,14.10
2014,05,17,07,05,14.10
2014,05,17,07,06,14.10
2014,05,17,07,07,14.10
2014,05,17,07,08,14.10
2014,05,17,07,09,14.10
2014,05,17,07,10,14.10
2014,05,17,07,11,14.10
2014,05,17,07,12,14.10
2014,05,17,07,13,14.10
2014,05,17,07,14,14.10
2014,05,17,07,15,14.10
2014,05,17,07,16,14.10
2014,05,17,07,17,14.10
2014,05,17,07,18,14.10
2014,05,17,07,19,14.10
2014,05,17,07,20,14.10
2014,05,17,07,21,14.10
2014,05,17,07,22,14.10
2014,05,17,07,23,14.10
2014,05,17,07,24,14.10
2014,05,17,07,25,14.10
2014,05,17,07,26,14.10
2014,05,17,07,27,14.10
2014,05,17,07,28,14.10
2014,05,17,07,29,14.10
2014,05,17,07,30,14.10
2014,05,17,07,31,14.10
2014,05,17,07,32,14.10
2014,05,17,07,33,14.10
2014,05,17,07,34,14.10
2014,05,17,07,35,14.10
2014,05,17,07,36,14.10
2014,05,17,07,37,14.10
2014,05,17,07,38,14.10
2014,05,17,07,39,14.10
2014,05,17,07,40,14.10
2014,05,17,07,41,14.10
2014,05,17,07,42,14.10
2014,05,17,07,43,14.20
2014,05,17,07,44,14.20
2014,05,17,07,45,14.20
2014,05,17,07,46,14.10
2014,05,17,07,47,14.20
2014,05,17,07,48,14.20
2014,05,17,07,49,14.20
2014,05,17,07,50,14.20
2014,05,17,07,51,14.20
2014,05,17,07,52,14.20
2014,05,17,07,53,14.20
2014,05,17,07,54,14.20
2014,05,17,07,55,14.20
2014,05,17,07,56,14.20
2014,05,17,07,57,14.30
2014,05,17,07,58,14.30
2014,05,17,07,59,14.30
2014,05,17,08,00,14.30
2014,05,17,08,01,14.40
2014,05,17,08,02,14.50
2014,05,17,08,03,14.50
2014,05,17,20,54,16.60
2014,05,17,20,55,16.50
2014,05,17,20,56,16.50
2014,05,17,20,57,16.50
2014,05,17,20,58,16.40
2014,05,17,20,59,16.40
2014,05,17,21,00,16.40
2014,05,17,21,01,16.40
2014,05,17,21,02,16.30
2014,05,17,21,03,16.30
2014,05,17,21,04,16.30
2014,05,17,21,05,16.30
2014,05,17,21,06,16.30
2014,05,17,21,07,16.30
2014,05,17,21,08,16.20
2014,05,17,21,09,16.20
2014,05,17,21,10,16.20
2014,05,17,21,11,16.20
2014,05,17,21,12,16.20
2014,05,17,21,13,16.10
2014,05,17,21,14,16.10
2014,05,17,21,15,16.10
2014,05,17,21,16,16.10
2014,05,17,21,17,16.10
2014,05,17,21,18,16.00
2014,05,17,21,19,16.00
2014,05,17,21,20,16.00
2014,05,17,21,21,16.00
2014,05,17,21,22,15.90
2014,05,17,21,23,15.90
2014,05,17,21,24,15.90
2014,05,17,21,25,15.90
2014,05,17,21,26,15.90
2014,05,17,21,27,15.80
2014,05,17,21,28,15.80
2014,05,17,21,29,15.80
2014,05,17,21,30,15.80
2014,05,17,21,31,15.80
2014,05,17,21,32,15.80
2014,05,17,21,33,15.70
2014,05,17,21,34,15.70
2014,05,17,21,35,15.70
2014,05,17,21,36,15.70
2014,05,17,21,37,15.70
2014,05,17,21,38,15.60
2014,05,17,21,39,15.60
2014,05,17,21,40,15.60
2014,05,17,21,41,15.60
2014,05,17,21,42,15.60
2014,05,17,21,43,15.60
2014,05,17,21,44,15.60
2014,05,17,21,45,15.60
2014,05,17,21,46,15.60
2014,05,17,21,47,15.60
2014,05,17,21,48,15.60
2014,05,17,21,49,15.60
2014,05,17,21,50,15.60
2014,05,17,21,51,15.60
2014,05,17,21,52,15.50
2014,05,17,21,53,15.50
2014,05,17,21,54,15.50
2014,05,17,21,55,15.50
2014,05,17,21,56,15.40
2014,05,17,21,57,15.40
2014,05,17,21,58,15.40
2014,05,17,21,59,15.40
2014,05,17,22,00,15.40
2014,05,17,22,01,15.40
2014,05,17,22,02,15.40
2014,05,17,22,03,15.30
2014,05,17,22,04,15.30
2014,05,17,22,05,15.30
2014,05,17,22,06,15.30
2014,05,17,22,07,15.20
2014,05,17,22,08,15.20
2014,05,17,22,09,15.20
2014,05,17,22,10,15.20
2014,05,17,22,11,15.20
2014,05,17,22,12,15.20
2014,05,17,22,13,15.20
2014,05,17,22,14,15.20
2014,05,17,22,15,15.20
2014,05,17,22,16,15.10
2014,05,17,22,17,15.10
2014,05,17,22,18,15.10
2014,05,17,22,19,15.10
2014,05,17,22,20,15.00
2014,05,17,22,21,15.00
2014,05,17,22,22,15.00
2014,05,17,22,23,15.00
2014,05,17,22,24,15.00
2014,05,17,22,25,15.00
2014,05,17,22,26,15.00
2014,05,17,22,27,15.00
2014,05,17,22,28,15.00
2014,05,17,22,29,15.00
2014,05,17,22,30,15.00
2014,05,17,22,31,15.00
2014,05,17,22,32,15.00
2014,05,17,22,33,15.00
2014,05,17,22,34,15.00
2014,05,17,22,35,15.00
2014,05,17,22,36,14.90
2014,05,17,22,37,14.90
2014,05,17,22,38,14.90
2014,05,17,22,39,14.80
2014,05,17,22,40,14.80
2014,05,17,22,41,14.80
2014,05,17,22,42,14.80
2014,05,17,22,43,14.80
2014,05,17,22,44,14.80
2014,05,17,22,45,14.80
2014,05,17,22,46,14.70
2014,05,17,22,47,14.70
2014,05,17,22,48,14.70
2014,05,17,22,49,14.70
2014,05,17,22,50,14.70
2014,05,17,22,51,14.70
2014,05,17,22,52,14.70
2014,05,17,22,53,14.60
2014,05,17,22,54,14.60
2014,05,17,22,55,14.60
2014,05,17,22,56,14.60
2014,05,17,22,57,14.60
2014,05,17,22,58,14.60
2014,05,17,22,59,14.50
2014,05,17,23,00,14.50
2014,05,17,23,01,14.50
2014,05,17,23,02,14.40
2014,05,17,23,03,14.40
2014,05,17,23,04,14.40
2014,05,17,23,05,14.40
2014,05,17,23,06,14.40
2014,05,17,23,07,14.40
2014,05,17,23,08,14.30
2014,05,17,23,09,14.30
2014,05,17,23,10,14.30
2014,05,17,23,11,14.30
2014,05,17,23,12,14.30
2014,05,17,23,13,14.30
2014,05,17,23,14,14.30
2014,05,17,23,15,14.30
2014,05,17,23,16,14.20
2014,05,17,23,17,14.20
2014,05,17,23,18,14.20
2014,05,17,23,19,14.20
2014,05,17,23,20,14.20
2014,05,17,23,21,14.20
2014,05,17,23,22,14.20
2014,05,17,23,23,14.10
2014,05,17,23,24,14.10
2014,05,17,23,25,14.10
2014,05,17,23,26,14.10
2014,05,17,23,27,14.10
2014,05,17,23,28,14.00
2014,05,17,23,29,14.00
2014,05,17,23,30,14.00
2014,05,17,23,31,14.00
2014,05,17,23,32,13.90
2014,05,17,23,33,13.90
2014,05,17,23,34,13.90
2014,05,17,23,35,13.90
2014,05,17,23,36,13.90
2014,05,17,23,37,13.90
2014,05,17,23,38,13.90
2014,05,17,23,39,13.90
2014,05,17,23,40,13.90
2014,05,17,23,41,13.90
2014,05,17,23,42,13.90
2014,05,17,23,43,13.80
2014,05,17,23,44,13.80
2014,05,17,23,45,13.80
2014,05,17,23,46,13.80
2014,05,17,23,47,13.80
2014,05,17,23,48,13.80
2014,05,17,23,49,13.80
2014,05,17,23,50,13.80
2014,05,17,23,51,13.80
2014,05,17,23,52,13.80
2014,05,17,23,53,13.80
2014,05,17,23,54,13.80
2014,05,17,23,55,13.70
2014,05,17,23,56,13.70
2014,05,17,23,57,13.70
2014,05,17,23,58,13.70
2014,05,17,23,59,13.70
